This is the latest recevied weather packets stored in our database for station/object NI4CE-11. If no packets are shown the sender has not sent any weather packets the latest 10 day(s).
| Time | Temp. | Humidity | Pressure | Rain* | Wind** | Luminosity | Snow |
|---|---|---|---|---|---|---|---|
| 1787775865 | 31.67° C | 100% | 1015.1 hPa | 0 mm | - | - | - |
| 1787775701 | 32.22° C | 100% | 1015.2 hPa | 0 mm | - | - | - |
| 1787775565 | 32.22° C | 100% | 1015.2 hPa | 0 mm | - | - | - |
| 1787775396 | 33.89° C | 100% | 1015.2 hPa | 0 mm | - | - | - |
| 1787775265 | 33.89° C | 100% | 1015.2 hPa | 0 mm | - | - | - |
| 1787774965 | 32.78° C | 100% | 1015.3 hPa | 0 mm | - | - | - |
| 1787774665 | 32.78° C | 100% | 1015.3 hPa | 0 mm | - | - | - |
| 1787774365 | 32.22° C | 100% | 1015.3 hPa | 0 mm | - | - | - |
| 1787774066 | 32.78° C | 100% | 1015.5 hPa | 0 mm | - | - | - |
| 1787773854 | 32.22° C | 100% | 1015.4 hPa | 0 mm | - | - | - |
| 1787773765 | 32.22° C | 100% | 1015.4 hPa | 0 mm | - | - | - |
| 1787773523 | 32.78° C | 100% | 1015.5 hPa | 0 mm | - | - | - |
| 1787773465 | 32.78° C | 100% | 1015.5 hPa | 0 mm | - | - | - |
| 1787773165 | 33.89° C | 100% | 1015.7 hPa | 0 mm | - | - | - |
| 1787772865 | 35° C | 100% | 1015.5 hPa | 0 mm | - | - | - |
| 1787772683 | 35° C | 100% | 1015.5 hPa | 0 mm | - | - | - |
| 1787772565 | 35° C | 100% | 1015.5 hPa | 0 mm | - | - | - |
| 1787772342 | 36.67° C | 100% | 1015.5 hPa | 0 mm | - | - | - |
| 1787772265 | 36.67° C | 100% | 1015.5 hPa | 0 mm | - | - | - |
| 1787771965 | 35.56° C | 100% | 1015.6 hPa | 0 mm | - | - | - |
| 1787771665 | 35.56° C | 100% | 1015.7 hPa | 0 mm | - | - | - |
| 1787771365 | 33.89° C | 100% | 1015.6 hPa | 0 mm | - | - | - |
| 1787771065 | 34.44° C | 100% | 1015.6 hPa | 0 mm | - | - | - |
| 1787770857 | 35° C | 100% | 1015.8 hPa | 0 mm | - | - | - |
| 1787770765 | 35° C | 100% | 1015.8 hPa | 0 mm | - | - | - |
* Rain latest hour (hover to see other rain measurements)
** Current wind speed in m/s (hover to see current wind gust speed)